GPS BIIA-10 (PRN 32) 1 20959U 90103A 12135.56380933 -.00000068 00000-0 10000-3 0 5600 2 20959 54.5306 240.0335 0119235 326.0049 33.2491 2.00560853157219 GPS BIIA-14 (PRN 26) 1 22014U 92039A 12136.35561156 -.00000071 00000-0 10000-3 0 3758 2 22014 56.3485 299.9039 0207209 68.2257 293.9501 2.00565488138967 GPS BIIA-15 (PRN 27) 1 22108U 92058A 12135.96095529 -.00000090 00000-0 10000-3 0 2979 2 22108 56.2655 352.8506 0219739 297.5160 60.3100 2.00556199144134 GPS BIIA-21 (PRN 09) 1 22700U 93042A 12135.48988930 -.00000092 00000-0 10000-3 0 6139 2 22700 56.4108 354.4081 0172158 92.7710 269.2388 2.00569922138287 GPS BIIA-22 (PRN 30) 1 22779U 93054A 12134.72930972 -.00000079 00000-0 10000-3 0 2497 2 22779 54.9866 49.2895 0108127 89.5752 271.6643 2.00566276137025 GPS BIIA-23 (PRN 04) 1 22877U 93068A 12135.62995594 .00000042 00000-0 10000-3 0 9780 2 22877 53.7452 174.9803 0098616 47.8127 313.0941 2.00572191135934 GPS BIIA-24 (PRN 06) 1 23027U 94016A 12135.32829729 .00000048 00000-0 10000-3 0 9376 2 23027 53.7524 111.7421 0074005 326.8267 32.7017 2.00561160133232 GPS BIIA-25 (PRN 03) 1 23833U 96019A 12135.84240486 .00000037 00000-0 10000-3 0 1347 2 23833 53.3515 107.3329 0150541 67.6361 293.9321 2.00558475118222 GPS BIIA-26 (PRN 10) 1 23953U 96041A 12136.20178972 -.00000064 00000-0 10000-3 0 6229 2 23953 54.1979 236.1501 0111259 42.6618 318.2087 2.00561084116028 GPS BIIR-2 (PRN 13) 1 24876U 97035A 12135.72052019 -.00000067 00000-0 10000-3 0 886 2 24876 56.4899 300.2688 0047528 114.6322 245.8523 2.00563209108546 GPS BIIA-28 (PRN 08) 1 25030U 97067A 12134.85186102 -.00000096 00000-0 10000-3 0 363 2 25030 57.1807 0.6676 0121708 191.4542 168.3050 2.00562572106425 GPS BIIR-3 (PRN 11) 1 25933U 99055A 12135.96864616 .00000061 00000-0 10000-3 0 5298 2 25933 50.8859 159.3558 0126678 59.6002 301.7019 2.00562272 92364 GPS BIIR-4 (PRN 20) 1 26360U 00025A 12136.09017342 -.00000061 00000-0 10000-3 0 6183 2 26360 53.2984 232.4441 0047825 73.3199 287.2264 2.00559002 88064 GPS BIIR-5 (PRN 28) 1 26407U 00040A 12134.93824146 -.00000065 00000-0 10000-3 0 5702 2 26407 56.0850 57.8549 0181396 255.5524 102.4257 2.00568739 86712 GPS BIIR-6 (PRN 14) 1 26605U 00071A 12136.02836288 -.00000070 00000-0 10000-3 0 5861 2 26605 56.0811 298.7337 0064361 242.9222 116.4007 2.00574512 84337 GPS BIIR-7 (PRN 18) 1 26690U 01004A 12135.39445263 -.00000066 00000-0 10000-3 0 4606 2 26690 53.2752 235.5538 0133593 235.8101 122.9343 2.00561353 82733 GPS BIIR-8 (PRN 16) 1 27663U 03005A 12134.76720828 -.00000064 00000-0 10000-3 0 8908 2 27663 56.1792 57.4761 0066329 356.3051 3.6276 2.00565168 68073 GPS BIIR-9 (PRN 21) 1 27704U 03010A 12134.31799131 .00000025 00000-0 10000-3 0 7808 2 27704 53.3654 175.3812 0192203 231.2124 127.1197 2.00569017 66850 GPS BIIR-10 (PRN 22) 1 28129U 03058A 12136.44452642 -.00000063 00000-0 10000-3 0 3541 2 28129 53.1457 235.7020 0061687 245.9488 113.4220 2.00562198 61605 GPS BIIR-11 (PRN 19) 1 28190U 04009A 12135.39494844 .00000064 00000-0 10000-3 0 3459 2 28190 55.0209 120.1070 0082740 7.6522 352.4712 2.00575572 59750 GPS BIIR-12 (PRN 23) 1 28361U 04023A 12134.68035805 -.00000066 00000-0 10000-3 0 1624 2 28361 55.0248 295.8158 0078053 188.9927 170.8545 2.00567402 57829 GPS BIIR-13 (PRN 02) 1 28474U 04045A 12135.17146363 .00000038 00000-0 10000-3 0 515 2 28474 53.7829 174.0292 0112514 200.5423 159.0535 2.00561958 55190 GPS BIIRM-1 (PRN 17) 1 28874U 05038A 12136.02080275 .00000059 00000-0 10000-3 0 3129 2 28874 55.1739 117.0363 0074302 230.0622 129.2695 2.00563630 48633 GPS BIIRM-2 (PRN 31) 1 29486U 06042A 12135.63272404 -.00000093 00000-0 10000-3 0 6759 2 29486 56.2029 356.0439 0080005 309.2303 50.0951 2.00568370 41329 GPS BIIRM-3 (PRN 12) 1 29601U 06052A 12136.07385158 -.00000075 00000-0 10000-3 0 7299 2 29601 56.1316 56.3830 0041063 357.8529 2.1267 2.00548508 40240 GPS BIIRM-4 (PRN 15) 1 32260U 07047A 12136.39808444 -.00000078 00000-0 00000+0 0 4321 2 32260 54.1812 293.7125 0043295 0.4449 359.5790 2.00578273 33647 GPS BIIRM-5 (PRN 29) 1 32384U 07062A 12135.20848967 .00000061 00000-0 10000-3 0 4728 2 32384 55.2022 117.5609 0025474 292.2087 67.6137 2.00572916 32343 GPS BIIRM-6 (PRN 07) 1 32711U 08012A 12136.29854594 -.00000092 00000-0 10000-3 0 2397 2 32711 55.9122 355.8540 0052967 189.4673 170.4707 2.00571350 30571 GPS BIIRM-8 (PRN 05) 1 35752U 09043A 12136.26410590 -.00000062 00000-0 10000-3 0 9856 2 35752 54.4961 234.9082 0025802 8.3271 351.7288 2.00566459 20158 GPS BIIF-1 (PRN 25) 1 36585U 10022A 12136.12323878 -.00000079 00000-0 10000-3 0 8157 2 36585 55.4918 54.4373 0014580 29.4698 330.6101 2.00557932 14397 GPS BIIF-2 (PRN 01) 1 37753U 11036A 12136.00079881 .00000050 00000-0 00000+0 0 2731 2 37753 55.0099 174.7697 0005765 1.2037 358.8665 2.00565879 6078